[[{"header":{"parameterUnit":"m.s-1","parameterCategory":1,"la1":30.2991,"la2":30.254,"lo1":-89.0895,"lo2":-89.0444,"dy":0.0017,"dx":0.0017,"nx":28,"ny":28,"refTime":"2023-04-29T21:00:00:Z","depth":0,"parameterNumber":2,"parameterNumberName":"U-component_of_WINDS"},"data":[0,0,0,0,0,0,0,0,0,0,0,0,0,0,0,0,0,0,0,0,0,0,0,0,0,0,0,0,0,0,0,0,0,0,0,0,0,0,0,0,0,0,0,0,0,0,0,0,0,0,0,0,0,0,0,0,0,0,5.0725,5.0726,0,5.0845,5.0846,5.0847,5.0731,5.0726,5.0722,5.0717,5.0846,5.0854,5.0861,0,0,0,0,0,0,0,0,0,0,0,0,0,5.04,5.0406,5.0725,5.0726,5.0728,5.0844,5.0846,5.0848,5.0732,5.0726,5.0721,5.0715,5.0844,5.0853,5.0862,0,0,0,0,0,0,0,0,0,0,0,0,0,5.0533,5.0409,5.0725,5.0684,5.0681,5.0844,5.0846,5.0848,5.0733,5.0726,5.0719,5.0713,5.0841,5.0852,5.0863,5.1074,0,0,5.0899,5.0904,0,0,0,0,0,0,0,0,5.0525,5.0545,5.0688,5.0687,5.0685,5.0766,5.0778,5.0924,5.0735,5.0714,5.0717,5.0709,5.0825,5.0838,5.0876,5.108,5.1085,5.09,5.0907,5.0912,5.0915,0,0,0,0,0,0,0,5.0516,5.0539,5.0772,5.0691,5.0688,5.0661,5.0672,5.0806,5.0807,5.0715,5.0707,5.0722,5.0823,5.0865,5.0878,5.1087,5.0899,5.091,5.0917,5.0921,5.1468,5.1475,0,0,0,0,0,0,5.0511,5.0532,5.0769,5.0776,5.0586,5.0672,5.0685,5.0747,5.0805,5.0808,5.0728,5.0716,5.0848,5.0864,5.0882,5.1131,5.0912,5.0923,5.0929,5.1461,5.147,5.1478,0,0,0,0,0,0,5.0504,5.0533,5.0764,5.0652,5.0679,5.0685,5.0756,5.0753,5.0794,5.0815,5.0815,5.077,5.0843,5.0866,5.1026,5.1134,5.0928,5.0938,5.1452,5.1464,5.1474,5.1632,0,0,0,0,0,0,5.0495,5.0531,5.0611,5.0654,5.0685,5.0906,5.0762,5.076,5.0814,5.08,5.0855,5.0857,5.084,5.1009,5.1038,5.1146,5.0947,5.1442,5.1457,5.147,5.1617,5.1647,5.1673,0,0,0,0,0,5.0484,5.0652,5.0615,5.0645,5.0785,5.0912,5.093,5.0904,5.0823,5.0903,5.0916,5.0855,5.1117,5.1027,5.1058,5.1171,5.1435,5.1453,5.1469,5.1605,5.1641,5.1672,0,0,0,0,0,0,5.0624,5.0657,5.0617,5.0804,5.0856,5.0892,5.0992,5.0945,5.1022,5.1006,5.0973,5.0986,5.1156,5.1179,5.1078,5.1377,5.1263,5.1287,5.1356,5.1391,5.1418,5.1409,5.0957,0,0,0,0,0,5.0676,5.0775,5.0799,5.0962,5.099,5.0987,5.1042,5.1017,5.107,5.1092,5.1117,5.1173,5.1267,5.133,5.1418,5.162,5.163,5.1713,5.1741,5.1764,5.1785,5.1892,5.1929,5.1534,5.1534,5.1534,0,0,5.0786,5.0816,5.0881,5.0991,5.1028,5.1132,5.1006,5.1123,5.12,5.1111,5.1262,5.1283,5.1342,5.1524,5.1605,5.1549,5.1896,5.1785,5.1803,5.1812,5.1913,5.195,5.1984,5.1546,5.1543,5.1542,0,0,5.1038,5.1071,5.1209,5.1248,5.1305,5.1302,5.1335,5.1378,5.1388,5.1539,5.1474,5.1566,5.173,5.1774,5.1818,5.2085,5.2032,5.2115,5.2261,5.2366,5.2397,5.2424,5.2518,5.2553,5.2136,5.2136,5.2136,0,5.1168,5.132,5.1287,5.1407,5.1457,5.1378,5.1518,5.1558,5.1642,5.1679,5.1614,5.1816,5.1851,5.2041,5.2105,5.2144,5.2181,5.2109,5.2394,5.2422,5.2447,5.2536,5.2572,5.2146,5.2145,5.2144,5.2143,0,5.1476,5.1583,5.1688,5.1768,5.183,5.196,5.1947,5.2013,5.1983,5.1987,5.2142,5.218,5.2274,5.2317,5.229,5.2503,5.2466,5.2399,5.2284,5.2494,5.2578,5.2612,5.216,5.2156,5.2153,5.2151,0,0,5.1822,5.188,5.1919,5.1953,5.2009,5.2092,5.2217,5.2306,5.2364,5.2424,5.2529,5.2668,5.2605,5.2655,5.2632,5.2724,5.2931,5.2645,5.2645,5.2696,5.3167,5.3217,5.3257,5.2895,5.2902,5.2907,5.3162,0,5.2076,5.2292,5.2264,5.2472,5.257,5.2495,5.2604,5.2651,5.2658,5.2742,5.275,5.2848,5.2758,5.2788,5.2875,5.2887,5.3025,5.2869,5.2993,5.2998,5.298,5.3301,5.3355,5.3593,5.3194,5.32,5.3204,0,5.2401,5.2469,5.2686,5.2724,5.2764,5.2863,5.2941,5.3023,5.3074,5.3072,5.3127,5.3087,5.3214,5.3096,5.3269,5.3163,5.3213,5.3226,5.3235,5.3246,5.3114,5.332,5.3669,5.3705,5.3255,5.3251,5.3247,0,5.263,5.2777,5.2925,5.2957,5.3006,5.3076,5.31,5.3144,5.3199,5.3268,5.3303,5.3387,5.3433,5.3499,5.3483,5.3399,5.3661,5.3542,5.3663,5.3664,5.3722,5.3719,5.4083,5.3755,5.3754,5.3754,5.3753,0,5.2916,5.3051,5.3028,5.3119,5.3268,5.3235,5.3384,5.3399,5.3439,5.3532,5.3473,5.3562,5.3536,5.3624,5.3612,5.3757,5.3779,5.3781,5.3776,5.3786,5.3786,5.3818,5.3801,5.3763,5.3761,5.3759,5.3757,0,5.3198,5.3188,5.3344,5.3376,5.3387,5.3496,5.3524,5.361,5.361,5.3729,5.3755,5.3757,5.3857,5.3847,5.396,5.3952,5.4132,5.4108,5.4114,5.4108,5.423,5.4218,5.4628,5.468,5.4318,5.4322,5.4325,0,5.3381,5.3483,5.3525,5.3582,5.361,5.3703,5.3757,5.3729,5.3788,5.3852,5.3931,5.4025,5.4099,5.4263,5.4275,5.4361,5.4338,5.4475,5.4351,5.4357,5.4339,5.4333,5.4342,5.45,5.4504,5.4508,5.451,0,5.3707,5.3696,5.3775,5.3853,5.3919,5.398,5.4034,5.4085,5.4061,5.4131,5.4231,5.4288,5.4402,5.4497,5.4577,5.4603,5.4554,5.4549,5.4582,5.4593,5.4592,5.4593,5.418,5.454,5.4537,5.4535,5.4534,5.4532,5.3944,5.403,5.4072,5.4163,5.42,5.4252,5.4333,5.4343,5.4425,5.4514,5.4492,5.4605,5.4652,5.4755,5.4789,5.4877,5.4828,5.4875,5.4887,5.4899,5.4913,5.4578,5.4892,5.4891,5.4891,5.489,5.4889,0,5.4266,5.4288,5.4372,5.4448,5.4519,5.4464,5.4521,5.4584,5.4684,5.4731,5.4803,5.4918,5.5008,5.5027,5.5113,5.518,5.516,5.5204,5.5199,5.5205,5.4953,5.4916,5.5219,5.5219,5.5219,5.5219,5.5219,5.5219,5.4441,5.4583,5.4578,5.4737,5.4759,5.4868,5.4905,5.4952,5.4989,5.5119,5.5193,5.5203,5.5239,5.5327,5.5407,5.541,5.5445,5.5498,5.5493,5.5256,5.5223,5.5192,5.5157,5.5506,5.5506,5.5737,5.5739,5.5741]},{"header":{"parameterUnit":"m.s-1","parameterCategory":1,"la1":30.2991,"la2":30.254,"lo1":-89.0895,"lo2":-89.0444,"dy":0.0017,"dx":0.0017,"nx":28,"ny":28,"refTime":"2023-04-29T21:00:00:Z","depth":0,"parameterNumber":3,"parameterNumberName":"V-component_of_WINDS"},"data":[0,0,0,0,0,0,0,0,0,0,0,0,0,0,0,0,0,0,0,0,0,0,0,0,0,0,0,0,0,0,0,0,0,0,0,0,0,0,0,0,0,0,0,0,0,0,0,0,0,0,0,0,0,0,0,0,0,0,2.0166,2.0166,0,2.0162,2.0162,2.0162,2.0095,2.0094,2.0092,2.009,2.0088,2.0089,2.0091,0,0,0,0,0,0,0,0,0,0,0,0,0,2.0117,2.0118,2.0166,2.0166,2.0166,2.0162,2.0162,2.0162,2.0096,2.0094,2.0092,2.009,2.0087,2.0089,2.0091,0,0,0,0,0,0,0,0,0,0,0,0,0,2.0128,2.0118,2.0166,2.0132,2.0129,2.0162,2.0162,2.0162,2.0096,2.0094,2.0091,2.0089,2.0087,2.0089,2.0091,2.0156,0,0,2.0098,2.0099,0,0,0,0,0,0,0,0,2.0127,2.013,2.0137,2.0135,2.0131,2.0126,2.0144,2.016,2.0097,2.0109,2.009,2.0087,2.0103,2.0104,2.0109,2.0156,2.0156,2.0098,2.01,2.0101,2.0101,0,0,0,0,0,0,0,2.0127,2.013,2.0164,2.0137,2.0134,2.0118,2.0116,2.0146,2.012,2.0107,2.0103,2.0103,2.0101,2.0107,2.0108,2.0156,2.0098,2.01,2.0102,2.0103,2.0256,2.0259,0,0,0,0,0,0,2.013,2.0129,2.0164,2.0164,2.0123,2.0121,2.0119,2.0131,2.012,2.0116,2.0105,2.01,2.0104,2.0106,2.0108,2.0183,2.0101,2.0103,2.0104,2.0254,2.0257,2.026,0,0,0,0,0,0,2.013,2.0134,2.0165,2.0145,2.0148,2.0124,2.0138,2.0132,2.0138,2.0118,2.0113,2.0116,2.0102,2.0105,2.0145,2.0182,2.0104,2.0106,2.025,2.0255,2.0258,2.0334,0,0,0,0,0,0,2.0129,2.0134,2.0159,2.0147,2.0149,2.0202,2.014,2.0134,2.0142,2.0135,2.0127,2.0123,2.01,2.0142,2.0147,2.0183,2.0108,2.0247,2.0252,2.0257,2.0328,2.034,2.035,0,0,0,0,0,2.0127,2.0181,2.016,2.0165,2.0179,2.0204,2.0205,2.0178,2.0145,2.0169,2.0156,2.0123,2.0177,2.0146,2.0152,2.019,2.0244,2.0251,2.0257,2.0323,2.0338,2.035,0,0,0,0,0,0,2.0199,2.0178,2.0156,2.0207,2.0208,2.0192,2.0222,2.0194,2.0205,2.0198,2.0163,2.0162,2.0207,2.0202,2.0169,2.0252,2.0205,2.0212,2.0253,2.0267,2.0278,2.0278,2.011,0,0,0,0,0,2.022,2.0242,2.0223,2.027,2.0271,2.0247,2.0257,2.0235,2.0234,2.0235,2.0225,2.0226,2.0242,2.0254,2.0269,2.0327,2.0324,2.0355,2.0367,2.0376,2.0383,2.0412,2.0426,2.028,2.028,2.028,0,0,2.0266,2.0257,2.0273,2.0284,2.0282,2.0305,2.0248,2.0274,2.0291,2.0239,2.0275,2.0268,2.0267,2.0316,2.0337,2.0313,2.0422,2.0384,2.0391,2.0393,2.042,2.0434,2.0446,2.0284,2.0283,2.0283,0,0,2.036,2.0355,2.0394,2.0392,2.039,2.0373,2.0382,2.0371,2.0364,2.0401,2.0362,2.0381,2.0411,2.0412,2.0416,2.0509,2.0479,2.0515,2.0573,2.0603,2.0614,2.0624,2.0657,2.0669,2.0522,2.0522,2.0522,0,2.0416,2.0449,2.0417,2.0446,2.0452,2.0405,2.0443,2.0444,2.0447,2.0452,2.0425,2.0461,2.0457,2.0505,2.0528,2.0533,2.0542,2.0516,2.0615,2.0625,2.0634,2.0665,2.0677,2.0526,2.0526,2.0525,2.0525,0,2.0518,2.0541,2.0573,2.0575,2.0585,2.0619,2.0592,2.0606,2.0583,2.057,2.0607,2.06,2.0612,2.0622,2.0601,2.0667,2.0652,2.0621,2.0573,2.0652,2.0681,2.0693,2.0533,2.0531,2.053,2.0529,0,0,2.0658,2.0642,2.0654,2.0654,2.0647,2.0664,2.0696,2.0707,2.0719,2.0722,2.0748,2.0774,2.0744,2.0749,2.0727,2.0753,2.0827,2.0718,2.0717,2.0738,2.0899,2.0923,2.0937,2.0806,2.0809,2.081,2.0899,0,2.0748,2.08,2.0773,2.0829,2.0849,2.0805,2.0832,2.0831,2.0819,2.0835,2.0821,2.084,2.08,2.0802,2.0826,2.0813,2.0859,2.0806,2.083,2.0831,2.0832,2.0952,2.0977,2.1061,2.091,2.0912,2.0913,0,2.0861,2.0868,2.0926,2.0914,2.0921,2.0947,2.0954,2.097,2.0967,2.0957,2.0962,2.0934,2.0964,2.0917,2.0957,2.0922,2.093,2.0926,2.0928,2.0929,2.0877,2.0956,2.1087,2.11,2.0931,2.0929,2.0928,0,2.0956,2.098,2.1017,2.1019,2.1007,2.1025,2.1021,2.1016,2.1024,2.1031,2.1036,2.1046,2.1052,2.1061,2.1037,2.1004,2.1081,2.1031,2.1073,2.1074,2.1091,2.109,2.1225,2.1097,2.1097,2.1096,2.1096,0,2.106,2.1097,2.106,2.1083,2.1123,2.1091,2.1132,2.1123,2.1119,2.1139,2.1102,2.1122,2.1088,2.1105,2.1086,2.1123,2.1126,2.1118,2.1113,2.1122,2.1123,2.1126,2.112,2.11,2.1099,2.1098,2.1098,0,2.1173,2.115,2.1188,2.1173,2.117,2.12,2.1187,2.1208,2.1193,2.1219,2.1224,2.12,2.1218,2.1195,2.1211,2.1198,2.1248,2.1234,2.1248,2.1244,2.1287,2.1283,2.1429,2.1446,2.1307,2.1308,2.131,0,2.1241,2.1268,2.1255,2.1266,2.1264,2.1282,2.129,2.1259,2.1269,2.1268,2.1289,2.1303,2.1313,2.1344,2.1329,2.1341,2.1327,2.1377,2.1328,2.1336,2.1327,2.1326,2.1328,2.1387,2.1389,2.139,2.1391,0,2.1363,2.135,2.1362,2.1371,2.1381,2.1387,2.1389,2.14,2.1368,2.1381,2.1398,2.1406,2.1422,2.1437,2.1445,2.144,2.1411,2.1406,2.1417,2.1426,2.1433,2.1429,2.1275,2.1403,2.1402,2.1401,2.1401,2.14,2.1455,2.1477,2.1471,2.1486,2.1485,2.1488,2.1507,2.1494,2.1507,2.1517,2.1498,2.1521,2.1517,2.1524,2.1523,2.154,2.1519,2.1533,2.1537,2.1541,2.1548,2.1431,2.1542,2.1541,2.1541,2.1541,2.154,0,2.1575,2.1569,2.1583,2.1587,2.1599,2.1569,2.157,2.1582,2.1602,2.1601,2.1612,2.1632,2.1646,2.1631,2.1643,2.1659,2.1646,2.1663,2.1662,2.1661,2.1567,2.1556,2.1674,2.1674,2.1674,2.1674,2.1674,2.1674,2.1639,2.1674,2.166,2.1694,2.1688,2.1709,2.1712,2.1715,2.1714,2.1737,2.1749,2.1739,2.1733,2.1743,2.1755,2.175,2.1756,2.1779,2.1769,2.1681,2.1668,2.1656,2.1646,2.178,2.178,2.1862,2.1863,2.1864]}]]